Location: Artiguedieu
(43.5000°N, 0.5454°E)
Time: 10:23:34
(UTC+00:00)

Vanguard 1 Rocket - Pass Details

Date: 28 July 2021
Orbit: 650 x 4226 km, 34.3° (Epoch: 24 September)

Event Time Altitude Azimuth Distance (km) Brightness Sun altitude
Rises 11:34:57 0° 241° (WSW) 7,344 12.1 64.6°
Reaches altitude 10° 11:40:54 10° 237° (WSW) 5,769 11.7 64.9°
Maximum altitude 11:54:59 44° 172° (S) 2,327 11.1 65.3°
Drops below altitude 10° 12:02:32 10° 102° (ESE) 3,160 10.4 65.4°
Sets 12:04:49 0° 95° (E) 3,842 10.6 65.4°
